Regional Weather Roundup
Issued by NWS

Home | Current Version | Previous Version | Graphics & Text | Print | Product List | Glossary Off
Versions: 1 2 3 4 5 6 7 8 9 10 11 12 13 14 15 16 17 18 19 20 21 22 23 24 25 26 27 28 29 30 31 32 33 34 35 36 37 38 39 40 41 42 43 44 45 46 47 48 49 50

000
ASUS45 KSLC 050310
RWRUT

UTAH REGIONAL WEATHER ROUNDUP
NATIONAL WEATHER SERVICE SALT LAKE CITY UT
900 PM MDT TUE AUG 04 2015

UTZ001>011-023>025-050400-

NORTHERN UTAH

CITY           SKY/WX    TMP DP  RH WIND       PRES   REMARKS
BRIGHAM CITY   PTCLDY    77  49  36 N17       30.01R
HILL AFB       CLEAR     78  51  38 E9        30.02S
LOGAN          PTCLDY    68  52  56 N9        30.03R
OGDEN          CLEAR     80  51  36 NE7       29.99S
PROVO AIRPORT  PTCLDY    75  54  46 NE5       30.01R
SALT LAKE CITY MOCLDY    83  53  35 S5        29.97R
VERNAL         PTCLDY    74  50  42 NW5       30.10S
WENDOVER       CLEAR     86  43  22 W5        29.93S
HEBER CITY     PTCLDY    73  46  38 NE7       30.11R
WEST JORDAN    CLEAR     79  55  44 SW7       30.01S

$$

UTZ012>022-026-027-050400-

SOUTHERN/CENTRAL UTAH

CITY           SKY/WX    TMP DP  RH WIND       PRES   REMARKS
BLANDING       CLEAR     74  47  38 N10       30.23S
CEDAR CITY     MOCLDY    78  27  15 SW8       30.12R
DELTA          PTCLDY    84  37  18 NE6       29.99R
HANKSVILLE     PTCLDY    86  37  17 S6        30.01S
MILFORD        CLEAR     83  27  13 SW15      30.04R
MOAB/CYNLANDS  CLEAR     82  54  37 E3        30.02R
PRICE          PTCLDY    79  45  29 SE5       30.14R
ST GEORGE      PTCLDY    93  30  10 W6        29.91S
KANAB          CLOUDY    81  32  17 CALM      30.13R

$$

REGIONAL REPORTS     COLORADO/ARIZONA

CITY           SKY/WX    TMP DP  RH WIND       PRES   REMARKS
CRAIG, CO      NOT AVBL
GRAND JUNCTION CLEAR     77  37  23 CALM      30.06R
RIFLE          PTCLDY    74  49  41 SE6       30.14R
MONTROSE       CLEAR     75  48  38 S7        30.17R
CORTEZ         CLEAR     67  48  50 E6        30.18R
PAGE, AZ       PTCLDY    88  40  18 CALM      30.00R
GRAND CANYON   PTCLDY    69  30  23 SW3       30.25R
KINGMAN        CLEAR     88  30  12 S9        29.99R
FLAGSTAFF      CLEAR     68  32  26 SW3       30.29S

$$

REGIONAL REPORTS    NEVADA/IDAHO/WYOMING

CITY           SKY/WX    TMP DP  RH WIND       PRES   REMARKS
LAS VEGAS, NV  PTCLDY   100  30   8 S8        29.79S HX  94
ELY            MOCLDY    80  25  13 S13       30.11R
ELKO           CLOUDY    81  35  19 SW6       29.97R
POCATELLO, ID  CLOUDY    77  40  26 E8G28     30.01F
BURLEY         MOCLDY    73  48  41 S10       29.98R
EVANSTON, WY   PTCLDY    70  34  26 W8        30.24S
ROCK SPRINGS   PTCLDY    70  39  32 W6        30.21R
KEMMERER       CLEAR     64  34  32 NW10G17   30.26R

$$



USA.gov is the U.S. government's official web portal to all federal, state and local government web resources and services.